Theta_e
331 331 331 332 332 332 332 332 331 330 331 331 329 328 329 328 327 327 328 329 330 330 330 329 329 329 328 328 328 327 327 328 328 328 328 328 328 329 328 327 328 328
331 332 331 332 333 333 332 331 330 330 330 330 328 328 328 327 326 327 328 329 329 330 330 329 329 329 329 328 328 327 326 327 328 328 328 328 328 328 327 327 327 328
331 332 332 332 332 332 331 330 330 330 329 329 329 327 326 325 325 328 330 330 328 328 330 329 329 329 328 328 328 327 326 327 328 329 329 329 328 328 328 327 327 327
329 331 332 331 331 331 331 330 329 329 329 329 327 326 325 324 324 326 329 330 328 327 328 329 329 328 328 328 328 327 327 328 329 330 330 329 329 329 328 328 327 327
329 331 331 330 330 330 330 329 329 328 329 328 327 326 326 325 325 327 328 327 327 327 327 328 328 327 327 328 328 328 329 329 329 330 330 329 329 328 328 328 328 327
330 331 330 329 329 329 329 329 329 329 329 328 327 327 327 324 325 327 326 325 327 327 327 327 327 326 327 328 328 329 330 330 329 329 329 329 329 328 328 328 328 328
331 331 330 329 328 328 328 328 328 328 328 328 326 326 326 324 323 324 324 326 328 327 328 328 327 327 328 328 329 330 330 330 329 329 329 329 329 328 328 328 328 328
331 331 331 329 329 329 328 328 328 328 328 327 325 324 324 324 322 322 323 326 328 328 329 329 329 329 329 329 329 329 330 330 329 329 328 328 328 329 328 327 327 327
330 331 331 330 330 330 329 328 327 327 326 325 324 323 323 322 323 323 323 326 328 328 328 329 330 329 328 328 328 328 329 330 329 328 328 328 328 327 327 327 326 326
329 329 330 330 330 330 330 329 327 326 325 325 325 324 322 323 323 324 325 327 327 325 326 327 328 327 326 326 326 327 328 328 328 327 327 327 327 327 327 326 326 326
328 328 329 330 330 330 330 329 328 326 326 325 324 324 326 325 325 324 325 326 325 323 322 324 324 323 323 323 324 325 326 326 326 326 326 327 326 326 327 327 327 327
327 327 328 329 329 329 329 329 328 328 326 324 323 326 328 325 324 326 326 325 324 323 322 322 321 320 320 321 322 323 324 325 325 325 325 325 325 325 326 326 327 327
326 326 327 328 329 329 329 328 328 327 326 323 323 326 328 326 325 326 326 324 324 324 322 321 319 319 319 319 320 320 321 323 324 325 326 325 325 325 326 326 326 326
327 327 327 328 329 329 329 328 326 326 326 324 323 324 327 328 327 326 324 325 326 325 322 320 320 320 320 320 320 319 320 322 324 325 326 326 326 326 326 326 326 326
327 327 327 327 328 329 329 327 326 326 325 325 324 324 326 328 328 326 323 325 327 325 322 321 322 322 322 321 321 320 321 322 323 324 325 326 326 326 326 326 326 326
325 326 327 327 327 329 328 327 327 326 324 324 324 325 326 327 327 325 323 325 327 325 323 323 323 323 323 322 322 322 322 323 323 324 325 325 326 327 326 326 325 324
323 325 326 327 326 327 328 328 328 326 324 324 324 324 326 326 326 323 322 325 326 325 324 324 323 323 324 323 322 323 323 323 323 324 325 326 326 326 325 325 323 322
320 322 324 326 326 327 327 328 328 326 324 324 324 324 325 325 324 321 321 323 325 325 325 324 323 323 323 322 322 323 324 324 324 325 326 326 326 326 325 324 322 322
318 320 323 325 326 326 326 327 327 325 323 324 324 324 326 325 322 321 322 324 325 325 325 325 324 323 323 321 321 322 323 324 325 324 324 324 325 325 325 323 322 322
316 319 321 323 324 326 326 326 327 325 323 324 324 325 326 324 321 322 324 325 325 325 325 324 324 323 322 321 321 322 322 323 323 322 322 323 323 323 323 322 322 322
314 316 319 322 323 325 325 326 327 326 324 325 325 325 325 323 322 324 325 325 325 325 324 324 323 323 323 322 321 321 321 322 322 322 322 322 321 321 321 321 321 322
312 313 317 321 323 323 323 325 326 326 325 325 326 325 324 324 324 325 325 325 325 324 323 323 323 323 323 322 322 322 321 321 322 322 321 321 321 320 321 321 322 322
311 311 313 318 321 322 321 323 326 326 325 325 325 324 324 324 323 323 324 324 323 322 322 322 322 322 323 322 322 322 322 321 321 321 321 321 320 320 320 320 321 321
310 310 311 313 316 318 318 318 322 325 326 325 325 324 324 323 321 322 322 322 321 321 320 321 321 321 321 321 321 321 321 321 321 321 321 320 320 320 319 319 320 320
309 310 310 310 311 312 312 312 314 320 325 325 324 323 323 321 319 320 321 320 319 319 319 319 320 319 319 319 320 320 320 320 320 320 320 320 320 319 319 319 319 319
308 309 309 310 310 309 308 307 306 310 317 321 321 321 321 318 316 317 319 318 317 318 318 317 317 316 316 316 317 317 318 318 319 319 319 319 319 319 318 318 319 319
Wind_Speed
24 23 21 20 20 21 22 23 23 22 24 26 27 27 26 24 23 22 21 21 19 18 20 21 22 23 23 21 21 21 21 21 21 21 22 21 20 19 19 20 21 21
25 24 22 20 20 22 21 20 21 21 21 25 27 26 25 24 22 20 20 21 20 20 21 22 23 23 23 22 22 22 22 21 21 22 22 22 21 20 20 20 21 21
25 24 22 21 20 21 20 18 18 18 19 23 27 25 23 21 19 19 19 21 22 22 22 23 24 23 23 23 23 23 22 22 22 21 22 22 21 19 19 19 20 20
24 25 22 21 20 19 19 18 17 17 18 23 26 24 21 19 18 19 20 21 22 23 23 23 23 23 23 24 24 23 23 22 21 21 21 20 19 18 18 18 19 20
21 23 21 20 19 18 19 19 17 17 19 23 24 22 20 20 19 19 19 20 22 23 23 22 22 22 22 24 24 23 23 22 21 21 20 18 17 18 18 18 19 19
19 21 20 20 19 18 19 20 18 18 21 23 23 22 21 21 22 20 20 21 21 22 22 22 22 23 23 23 24 23 23 22 22 22 20 19 18 19 19 19 19 19
20 21 21 21 20 20 20 19 19 20 23 24 24 23 22 22 23 22 22 23 22 21 21 21 22 22 22 23 24 24 24 22 21 22 21 21 20 19 19 20 19 19
22 23 24 24 23 21 20 20 20 21 24 26 27 25 24 24 23 22 24 24 23 22 21 21 21 21 21 23 24 23 23 21 20 21 21 21 21 20 21 21 21 20
24 24 25 27 25 23 22 21 22 23 25 27 28 27 25 25 24 24 25 24 22 22 22 21 21 21 21 21 22 22 22 21 20 21 21 20 20 20 21 21 20 19
23 22 22 26 27 25 22 22 23 23 24 25 27 27 26 25 24 24 24 23 23 22 22 22 21 21 20 19 19 20 21 20 21 21 20 19 19 20 20 20 20 19
19 19 19 22 25 24 21 22 23 23 24 25 26 28 28 25 23 24 24 24 24 23 22 22 21 20 19 19 18 18 19 19 20 20 19 18 18 19 19 18 19 19
18 17 17 18 21 21 19 19 23 25 26 26 27 28 27 24 25 26 25 25 24 23 22 21 21 20 19 18 18 18 18 18 18 18 17 17 18 18 17 17 18 19
18 18 17 18 20 20 17 16 20 24 26 26 27 28 26 25 26 24 22 23 23 22 22 21 20 20 19 18 18 19 19 18 18 18 17 17 17 17 17 17 18 18
17 17 16 17 19 19 17 15 17 23 25 26 27 27 26 27 25 19 17 20 22 22 22 21 20 20 19 18 18 18 19 18 18 19 18 17 17 17 18 17 17 16
17 17 16 16 17 19 18 16 17 22 25 26 28 28 27 26 23 19 19 20 22 22 22 21 20 20 19 18 17 18 18 19 19 19 18 17 17 18 18 17 16 15
17 16 16 16 17 19 20 18 19 23 26 27 29 29 27 25 23 22 21 22 24 24 23 21 20 20 19 16 16 17 17 18 19 19 18 17 18 19 18 16 16 15
19 18 16 15 16 18 21 20 20 25 28 29 30 30 28 25 24 24 24 24 26 26 24 22 21 20 18 16 15 16 17 18 18 18 18 17 17 18 17 16 16 15
20 20 18 16 17 18 21 22 22 27 30 30 31 31 29 27 26 26 26 26 28 28 26 24 22 20 18 16 16 16 17 17 17 17 17 17 17 17 17 17 18 16
21 19 18 18 18 18 20 23 25 28 31 31 31 31 30 30 29 28 27 28 30 29 28 26 24 21 19 18 17 17 17 17 17 16 16 16 17 17 18 18 18 17
24 19 18 18 18 17 19 24 27 28 30 32 32 32 32 32 31 30 30 31 31 30 28 27 25 23 21 19 19 18 18 18 18 17 16 16 16 16 18 19 19 17
28 22 18 17 17 17 18 23 28 28 29 31 33 34 33 34 33 33 33 32 30 29 29 27 26 25 23 21 20 20 19 18 19 18 16 16 16 15 16 18 18 18
31 24 19 17 17 15 14 21 27 28 28 32 35 35 34 36 36 36 35 33 31 29 29 28 27 26 25 23 22 22 21 20 20 19 17 17 17 16 15 16 17 18
34 27 19 15 15 13 14 21 28 30 29 32 37 36 35 36 36 35 34 32 31 30 29 28 28 26 25 24 24 23 23 22 21 20 19 18 18 17 16 16 17 18
35 33 24 14 9 9 15 19 25 29 30 33 37 39 37 36 36 35 35 33 31 30 29 29 29 27 25 24 24 24 24 23 23 22 21 20 19 18 18 18 19 18
29 33 32 22 9 3 10 14 19 27 32 35 38 39 39 39 39 38 36 34 33 32 31 30 29 27 25 24 23 22 22 22 23 24 23 22 20 19 19 19 19 19
23 28 32 30 21 11 7 9 13 21 31 36 38 40 41 40 39 38 38 35 33 32 30 29 27 25 22 21 22 21 20 19 20 21 22 22 21 20 19 19 19 18
Wind_Direction
252 245 245 243 244 246 246 249 249 244 238 227 213 208 211 213 217 220 221 221 221 219 217 215 213 211 209 209 212 215 214 215 217 218 220 219 216 216 214 213 216 219
253 244 238 238 242 245 245 244 245 244 236 224 211 206 211 215 220 224 223 221 219 216 214 214 213 212 212 213 214 213 213 215 216 217 218 215 212 213 214 212 214 218
249 240 235 235 237 240 241 237 237 237 227 214 208 207 212 217 225 227 222 219 219 216 212 212 215 214 213 215 215 212 213 214 215 215 217 214 208 210 216 216 217 220
242 236 234 236 236 236 236 234 233 230 217 206 204 206 207 210 222 227 219 214 217 217 213 211 214 214 212 215 214 211 211 213 213 215 218 215 206 210 218 219 219 221
237 234 235 236 236 233 231 232 229 224 216 209 207 207 202 201 213 222 216 211 213 216 213 211 213 213 212 213 211 210 210 211 212 214 218 217 210 211 216 217 218 219
236 235 237 238 236 231 229 230 226 221 217 212 209 208 205 203 207 212 213 212 211 212 210 207 211 213 211 210 209 210 211 210 212 212 213 214 213 214 214 214 217 217
243 240 239 240 239 233 228 226 223 219 215 211 209 209 210 210 207 205 208 210 208 210 209 206 209 211 209 208 209 212 212 211 212 213 212 211 212 214 215 214 216 216
255 248 245 245 242 235 228 221 217 213 210 210 209 209 211 212 208 205 208 210 206 207 209 208 209 210 208 208 209 211 214 213 212 213 212 211 212 214 217 216 215 215
261 252 250 250 246 240 231 219 213 209 209 211 210 207 207 208 208 208 210 211 208 207 209 209 210 210 209 208 208 210 213 212 213 214 213 212 212 213 215 217 217 217
262 253 250 250 246 242 234 221 213 211 212 212 206 201 201 203 208 209 210 211 211 209 209 210 210 210 208 208 209 210 210 212 215 215 214 214 215 214 215 217 220 221
274 265 257 252 248 246 240 227 217 214 214 209 202 201 201 202 208 209 206 210 213 211 209 210 210 209 208 208 209 208 208 212 215 215 214 216 216 214 215 218 221 224
286 281 275 267 257 251 248 237 225 218 214 207 204 207 205 204 209 209 203 205 210 211 211 211 210 209 210 211 210 208 208 210 212 213 213 215 215 215 216 220 223 225
284 281 280 275 263 254 249 241 231 223 215 207 206 210 210 207 207 207 204 204 205 207 209 209 208 208 209 211 211 209 209 208 209 211 212 213 215 216 216 219 222 224
292 282 273 267 262 256 250 242 232 222 213 208 209 212 217 214 205 203 212 211 205 204 205 203 203 204 204 205 207 207 208 208 208 210 212 212 212 212 213 215 217 219
297 291 279 268 260 253 248 244 234 219 210 210 213 215 221 219 207 207 218 215 208 206 202 197 196 198 197 196 199 202 205 207 209 211 212 211 209 208 208 210 211 212
291 289 285 276 269 257 245 240 234 220 210 212 216 219 222 217 211 216 220 215 211 208 200 194 193 194 193 193 194 197 200 204 209 212 212 209 208 207 207 206 206 204
292 280 274 270 271 264 248 238 230 218 210 211 214 218 219 214 213 220 220 212 211 208 200 195 194 195 195 196 196 196 198 203 206 208 209 207 207 207 207 206 203 200
301 281 272 264 260 260 249 234 220 209 207 211 214 214 214 213 215 218 214 207 206 206 203 199 196 197 196 195 195 197 198 200 200 204 206 206 207 209 210 209 206 204
317 291 278 265 254 252 244 227 212 205 206 211 212 210 210 213 214 211 207 204 204 205 205 203 200 197 193 189 189 190 193 194 196 199 202 202 206 209 211 210 209 210
339 316 293 272 256 250 240 223 211 207 209 210 207 204 207 210 208 203 203 204 205 206 209 208 203 197 194 191 187 185 187 191 195 198 198 199 202 207 212 214 213 213
355 339 317 286 261 250 240 223 212 208 211 210 203 201 205 206 200 198 203 206 208 209 211 211 207 202 200 197 192 188 188 191 197 201 200 198 198 203 209 212 211 210
6 351 330 296 261 244 233 221 213 209 209 207 202 200 204 204 200 200 203 206 207 208 209 209 206 203 203 202 198 194 193 196 201 205 204 199 196 198 200 201 200 202
17 8 346 304 261 226 207 211 213 212 209 204 201 200 203 204 203 200 199 201 203 202 203 202 199 196 197 199 200 200 200 201 205 208 208 203 199 199 199 198 197 200
25 24 15 343 283 204 177 189 203 209 208 204 202 202 202 200 196 192 191 195 197 196 196 196 193 188 188 191 195 200 204 205 206 208 210 208 205 203 204 204 204 205
28 32 31 24 10 139 145 151 173 192 201 203 203 202 198 192 187 186 187 188 189 189 189 190 188 183 182 186 190 194 200 204 205 207 210 211 210 207 205 205 207 209
30 37 39 39 40 47 73 97 126 160 181 192 196 194 191 184 178 179 182 181 180 183 183 184 184 180 179 186 191 192 195 199 201 204 207 208 208 208 206 204 205 206